Location: Fluertsh�userhof
(48.7537°N, 10.3850°E)
Time: 09:22:10
(UTC+00:00)

Cosmos 1125 Rocket - Pass Details

Date: 18 September 2020
Orbit: 758 x 780 km, 74.0° (Epoch: 27 October)

Event Time Altitude Azimuth Distance (km) Brightness Sun altitude
Rises 18:57:23 0° 176° (S) 3,243 6.5 -15.8°
Reaches altitude 10° 18:59:55 10° 167° (SSE) 2,323 5.7 -16.2°
Maximum altitude 19:04:42 36° 102° (ESE) 1,221 4.0 -16.9°
Drops below altitude 10° 19:09:31 10° 38° (NE) 2,343 5.9 -17.7°
Sets 19:12:04 0° 30° (NNE) 3,275 6.7 -18.0°
